Location: Neumark
(53.2815°N, 14.7811°E)
Time: 10:56:17
(UTC+00:00)

Daily predictions for brighter satellites

Satellite Brightness Start Highest point End
(mag) Time Altitude Azimuth Time Altitude Azimuth Time Altitude Azimuth
ATLAS 5 CENTAUR R/B 2.6 16:09:40 10° W 16:13:43 40° NNW 16:18:26 10° NE
ISS -3.3 16:13:46 10° WSW 16:17:06 55° SSE 16:20:25 10° E
Iridium 4 Rocket 4.4 16:13:45 10° NNE 16:18:26 28° ENE 16:22:46 10° SE
CZ-4C R/B 3.3 16:14:17 10° W 16:19:35 38° NNW 16:25:56 10° NE
Okean O Rocket 1.6 16:15:35 10° SSE 16:20:01 76° ENE 16:24:26 10° NNW
ADEOS Rocket 3.6 16:15:06 10° N 16:20:51 53° WNW 16:26:11 10° SW
USA 234 3.4 16:19:07 10° ENE 16:25:39 73° NNW 16:32:10 10° W
CZ-4 R/B 2.4 16:22:33 10° ESE 16:25:48 24° ENE 16:29:02 10° N
ERS-2 4.0 16:24:31 10° ENE 16:26:05 12° E 16:27:39 10° ESE
Cosmos 2278 Rocket 3.5 16:26:55 10° SSE 16:31:00 21° E 16:35:05 10° NE
Okean-O 3.5 16:28:03 10° ESE 16:31:50 28° ENE 16:35:38 10° N
Meteor 1-24 Rocket 4.4 16:27:47 10° SSW 16:32:58 55° WNW 16:38:15 10° N
CORIOLIS 4.4 16:29:46 10° S 16:35:09 76° WSW 16:40:33 10° NNW
Cosmos 2297 Rocket 4.3 16:33:09 10° NW 16:36:17 15° NNW 16:39:26 10° NNE
NOSS 2-1 (E) 4.0 16:33:53 10° S 16:36:49 29° SE 16:39:26 13° ENE
CZ-2C R/B 3.4 16:31:32 10° SE 16:36:56 53° ENE 16:42:33 10° N
COSMOS 2455 3.2 16:31:31 10° SW 16:37:32 68° NW 16:43:35 10° NE
Cosmos 1340 3.4 16:34:19 10° SSE 16:37:38 31° E 16:40:59 10° NNE
Cosmos 1346 Rocket 4.4 16:35:16 10° SE 16:37:39 16° E 16:39:37 12° NE
CZ-4B R/B 3.7 16:32:57 10° S 16:38:34 71° WSW 16:44:16 10° NNW
Aureole 2 Rocket 3.4 16:36:40 10° SW 16:39:36 39° WNW 16:42:36 10° NNE
SMAP 4.0 16:38:24 10° S 16:42:57 54° W 16:47:33 10° NNW
Cosmos 2058 Rocket 4.3 16:39:41 10° NNW 16:44:01 47° W 16:48:20 10° SSW
Cosmos 1455 2.8 16:42:14 10° NNW 16:46:03 62° W 16:49:51 10° S
Cosmos 405 3.2 16:43:06 10° N 16:46:33 47° ENE 16:49:57 10° SSE
ARGOS 3.8 16:45:25 10° ESE 16:50:10 33° ENE 16:54:57 10° N
Cosmos 1626 Rocket 3.5 16:47:30 10° S 16:51:53 68° E 16:56:19 10° NNE
Cosmos 1092 Rocket 4.0 16:46:47 10° S 16:52:46 57° E 16:58:46 10° NNE
Cosmos 2263 Rocket 3.8 16:49:23 10° W 16:54:14 28° NW 16:59:07 10° NNE
CZ-4C R/B 3.8 16:51:14 10° N 16:54:18 46° WNW 16:57:23 10° SW
CZ-2C R/B 4.1 16:52:21 12° NE 16:55:15 17° E 16:58:48 10° SE
Cosmos 1898 Rocket 3.6 16:50:10 10° S 16:55:18 57° ESE 17:00:25 10° NNE
Cosmos 1680 Rocket 4.4 16:51:39 10° NNW 16:56:45 53° WSW 17:01:47 10° S
TELKOM 3 4.3 16:55:08 10° WSW 16:57:05 29° S 16:58:27 16° SE
Nadezhda 4 Rocket 4.1 16:55:20 10° S 17:01:33 85° W 17:07:46 10° N
CZ-4B R/B 1.4 16:59:37 10° NNE 17:02:54 52° E 17:06:04 10° S
Cosmos 1048 Rocket 4.4 16:58:55 10° NNW 17:03:47 40° NE 17:08:38 10° SE
Landsat 5 4.4 17:00:13 10° N 17:03:58 46° WNW 17:07:37 10° SW
Cosmos 1328 3.8 17:00:12 10° S 17:04:06 56° E 17:08:00 10° NNE
Meteor 2-15 4.5 16:58:24 10° N 17:04:32 61° ENE 17:10:36 10° SSE
MOS 1 Rocket 3.3 17:00:24 10° NNE 17:04:33 46° E 17:08:42 10° S
CZ-2D R/B 3.2 17:02:59 10° SSE 17:06:49 90° SE 17:10:41 10° NNW
Meteor 2-8 Rocket 4.4 17:00:50 10° N 17:06:58 84° ENE 17:13:06 10° SSE
Cosmos-2242 3.0 17:03:53 10° N 17:08:08 57° ENE 17:12:23 10° SSE
Meteor 1-11 4.4 17:05:06 10° SSE 17:10:28 46° E 17:15:50 10° NNE
COSMO-SKYMED 1 2.5 17:07:36 10° NNE 17:11:57 64° ESE 17:16:15 10° S
BREEZE-M DEB (TANK) 3.2 17:14:04 10° WSW 17:16:05 30° S 17:17:14 20° SE
Cosmos 1937 Rocket 3.5 17:12:42 10° S 17:17:57 64° ESE 17:23:07 11° NNE
Cosmos 1758 Rocket 3.7 17:14:14 10° S 17:18:35 54° E 17:23:00 10° NNE
Cosmos 2098 Rocket 4.3 17:12:14 10° S 17:19:33 63° E 17:26:28 10° NNE
USA 290 2.6 17:17:22 10° NNW 17:20:32 65° WSW 17:23:42 10° SSE
CSL-04 Debris 4.2 17:18:26 10° SE 17:23:40 55° ENE 17:28:56 10° N
Cosmos 1833 Rocket 3.0 17:18:51 10° NW 17:24:28 71° WSW 17:30:03 10° SSE
SL-08 RB Rocket 4.1 17:21:13 12° SE 17:24:59 38° ENE 17:29:09 10° N
NOSS 2-1 (C) 2.8 17:22:29 10° SW 17:25:47 89° SE 17:27:19 32° NE
Cosmos 2221 3.6 17:23:46 10° N 17:26:48 25° NE 17:26:48 25° NE
NOSS 2-2 (C) 4.3 17:24:01 10° NW 17:28:47 57° NE 17:32:40 23° ESE
H-2A R/B 3.2 17:24:51 10° N 17:29:03 44° WNW 17:33:09 10° SW
H-2A R/B 1.9 17:24:10 10° SSE 17:29:15 78° ENE 17:34:32 10° NNW
NOSS 2-1 (D) 2.9 17:28:25 10° SW 17:31:44 82° NW 17:33:06 35° NE
Helios 1A Rocket 2.8 17:27:40 10° SSE 17:31:48 68° ENE 17:35:56 10° N
SeaSat 1 4.0 17:28:02 10° NNE 17:32:24 32° NW 17:36:44 10° WSW
Cosmos 389 Rocket 3.0 17:29:10 10° N 17:32:02 37° NE 17:32:02 37° NE
CZ-3B R/B 3.4 17:32:27 10° W 17:35:04 36° SSW 17:41:52 10° SE
Cosmos 1602 Rocket 4.0 17:31:06 10° SSW 17:35:27 65° WNW 17:39:52 10° N
Cosmos 44 3.7 17:31:07 10° SW 17:36:01 66° NW 17:39:31 21° NE
Cosmos 2026 Rocket 3.9 17:30:34 10° S 17:36:44 87° E 17:43:04 10° N
Cosmos 1417 Rocket 4.4 17:31:17 10° N 17:37:31 72° ENE 17:43:48 10° SSE
Meteor 2-15 Rocket 4.4 17:31:28 10° N 17:37:40 81° ENE 17:43:49 10° SSE
SJ 16-02 3.1 17:35:09 10° WSW 17:39:03 30° NW 17:42:58 10° N
Cosmos 1689 Rocket 3.8 17:41:34 21° S 17:41:34 21° S 17:42:42 10° S
NOSS 3-4 (A) 4.5 17:34:07 10° WNW 17:39:58 36° N 17:43:11 24° NE
NOSS 3-4 (C) 4.5 17:34:13 10° WNW 17:40:03 36° N 17:43:17 24° NE
Cosmos 1553 Rocket 4.0 17:34:15 10° N 17:40:43 84° E 17:47:04 10° SSE
YAOGAN 1 2.6 17:36:32 10° SSE 17:40:52 80° WSW 17:45:14 10° NNW
Aureole 3 Rocket 3.6 17:38:34 10° NNW 17:41:37 45° W 17:45:15 10° S
Cosmos 990 Rocket 4.5 17:37:18 10° SW 17:42:26 60° WNW 17:47:35 10° NNE
SJ-11-01 4.2 17:37:59 10° SSE 17:42:40 90° SW 17:47:23 10° NNW
COSMOS 2406 4.2 17:38:09 10° NW 17:43:42 48° WSW 17:49:11 10° S
Cosmos 2082 Rocket 2.2 17:38:34 10° NNW 17:44:21 85° WSW 17:50:03 10° SSE
Cosmos 1844 Rocket 3.9 17:39:13 10° WSW 17:44:32 40° NW 17:49:49 10° NNE
Meteor 1-27 4.2 17:42:00 10° NNW 17:47:39 87° WSW 17:53:13 10° S
HJ-1C 3.2 17:47:04 32° SSE 17:48:30 83° ENE 17:51:52 10° NNW
X-37B 3.4 17:49:00 10° SW 17:50:25 12° SSW 17:51:37 11° S
Cosmos 1825 Rocket 3.4 17:46:02 10° S 17:50:26 81° E 17:54:55 10° NNE
deb Kosmos-1763 4.1 17:47:22 10° NNW 17:50:58 72° WSW 17:52:52 26° SSE
NOSS 2-2 (E) 4.2 17:46:58 10° NW 17:52:05 80° NE 17:56:04 26° SE
ISS -3.6 17:50:25 10° W 17:53:46 63° S 17:53:50 63° S
ATLAS 2AS CENTAUR R/B 3.7 17:50:21 10° WNW 17:57:35 38° N 18:00:55 27° NE
MetOp-A 4.3 17:56:25 39° ESE 17:57:52 50° ENE 18:03:01 10° N
Iridium 4 Rocket 4.3 17:53:27 10° N 17:58:46 53° W 18:03:38 10° SSW
Cosmos 2315 Rocket 4.1 17:53:03 10° N 17:59:06 49° ENE 18:01:36 32° SE
Cosmos 2227 Rocket 4.3 17:56:41 10° NNW 17:59:17 13° N 18:01:04 12° NNE
ATLAS 5 CENTAUR R/B 3.3 17:55:35 10° WNW 17:59:32 26° N 18:00:57 23° NNE
SKYMED 2 4.5 17:55:48 10° N 18:00:00 48° WNW 18:04:11 10° SW
ERS-2 2.2 17:58:38 34° N 18:00:06 74° WNW 18:03:44 10° SSW
Cosmos 883 Rocket 4.4 17:54:06 10° N 18:00:15 58° ENE 18:05:20 15° SSE
CZ-4 R/B 2.5 17:56:49 10° S 18:00:39 43° W 18:04:27 10° NNW
CSL-04 Rocket 3.7 17:59:26 10° SSE 18:04:55 82° WSW 18:10:30 10° NNW
S3M 3.9 18:01:03 10° N 18:07:13 89° WSW 18:13:22 10° S
Okean-O 3.7 18:03:54 10° S 18:08:09 45° W 18:12:26 10° NNW
USA 234 3.3 18:05:52 39° ENE 18:08:27 67° N 18:14:57 10° WNW
IRS-1A Rocket 4.5 18:08:25 46° E 18:09:33 52° ENE 18:15:12 10° N
CZ-4C R/B 3.5 18:03:53 10° NW 18:09:40 37° NNE 18:11:46 31° NE
Ariane Rocket 3.4 18:11:25 45° NE 18:11:25 45° NE 18:15:37 10° N
Cosmos 1346 Rocket 3.2 18:09:39 10° SSW 18:13:33 61° WNW 18:15:11 32° N
Cosmos 1655 Rocket 3.8 18:07:41 10° S 18:13:51 70° E 18:20:04 10° NNE
Cosmos 2278 Rocket 2.2 18:08:42 10° SSW 18:14:23 86° WNW 18:17:11 32° NNE
Cosmos 1953 Rocket 3.5 18:12:35 10° SSW 18:16:56 84° WNW 18:17:58 52° N
SAR-Lupe-4 4.1 18:17:50 55° NW 18:18:02 56° WNW 18:21:33 10° SSW
USA 281 3.9 18:17:58 34° NE 18:18:11 34° NE 18:23:59 10° NNW
Cosmos 2292 Rocket 3.9 18:17:09 10° S 18:20:40 50° SSW 18:20:40 50° SSW
Cosmos 2297 Rocket 4.2 18:19:56 10° NNW 18:22:53 14° NNE 18:23:18 14° NNE
Genesis I 4.2 18:19:49 10° NW 18:22:30 39° NNW 18:22:30 39° NNW
COSMOS 2455 4.4 18:19:24 10° W 18:24:32 28° NNW 18:27:32 19° NNE
Cosmos 44 Rocket 4.0 18:19:46 10° SSW 18:23:19 42° S 18:23:19 42° S
NOSS 2-1 (E) 4.3 18:23:56 10° W 18:26:46 37° NW 18:26:46 37° NW
Cosmos 1842 Rocket 4.1 18:24:03 10° N 18:27:17 48° N 18:27:17 48° N
Meteor 2-2 Rocket 4.3 18:22:49 10° NNW 18:28:49 85° W 18:34:20 13° S
Cosmos 1869 4.1 18:25:31 10° NNW 18:29:18 50° W 18:30:11 41° SW
ARGOS 3.9 18:25:03 10° S 18:30:16 51° W 18:35:33 10° NNW
NOSS 2-2 (D) 4.4 18:26:25 10° NW 18:31:33 77° SW 18:33:29 47° SSE
CZ-4B R/B 4.4 18:32:42 10° NNW 18:34:44 15° WNW 18:36:44 10° W
CZ-2C R/B 2.6 18:33:46 34° NNE 18:36:23 84° ESE 18:42:00 10° SSW
Cosmos 372 Rocket 4.4 18:32:50 10° SW 18:38:00 61° WNW 18:39:58 37° N
Cosmos 2263 Rocket 4.4 18:37:18 10° NW 18:40:10 14° NNW 18:42:20 12° NNE
Cosmos 494 Rocket 4.4 18:35:54 10° NNW 18:40:58 59° WSW 18:42:29 42° SSW
Cosmos 2150 Rocket 4.3 18:41:56 10° SSW 18:45:58 56° SSW 18:45:58 56° SSW
MOS 1 4.2 18:51:16 85° NNW 18:51:16 85° NNW 18:56:52 10° NNW
Resurs 01 Rocket 4.3 19:00:28 10° N 19:00:28 10° N 19:00:33 10° N
Cosmos 909 Rocket 4.1 18:53:18 10° NW 18:59:45 88° NE 19:00:09 81° SE
Cosmos 2221 4.2 19:01:05 10° NNW 19:03:42 31° NW 19:03:42 31° NW
Cosmos 2266 Rocket 4.4 19:10:08 10° SSW 19:16:15 57° WNW 19:22:17 10° N
NOSS 3-4 (A) 4.2 19:25:30 10° NW 19:30:38 50° NNW 19:30:38 50° NNW
NOSS 3-4 (C) 4.2 19:25:37 10° NW 19:30:44 50° NNW 19:30:44 50° NNW
ATLAS 5 CENTAUR R/B 4.1 19:40:41 10° NW 19:42:29 21° NNW 19:42:29 21° NNW
Cosmos 2227 Rocket 4.5 19:41:20 10° NNW 19:42:53 16° N 19:42:53 16° N
ATLAS 2AS CENTAUR R/B 3.5 19:42:27 10° NW 19:48:21 48° NNW 19:48:21 48° NNW
USA 234 3.8 19:53:12 52° WNW 19:53:12 52° WNW 19:58:01 10° WNW
Cosmos 2278 Rocket 4.1 19:54:37 10° W 19:59:05 26° NW 19:59:05 26° NW
CZ-4C R/B 3.6 19:52:37 10° NW 19:56:58 44° NNW 19:56:58 44° NNW
USA 281 4.2 20:04:50 40° NW 20:04:50 40° NW 20:08:53 10° NNW
